Temp
98 92 88 92 92 92 90 87 84 89 93 90 89 90 91 94 96 94 95 95 96 96 99 100 100 100 98 97 94 93 91 90 90 90 84 85 81 81 88 83 89 91 90 91
90 86 93 95 93 90 90 86 86 91 93 91 90 89 95 94 95 96 95 96 97 99 98 98 99 100 99 96 94 92 91 89 89 91 91 86 82 81 91 92 90 90 88 89
87 93 98 92 91 88 90 88 85 86 91 94 89 85 89 94 96 97 99 100 100 99 98 98 98 99 99 96 94 93 91 90 89 90 91 91 91 90 86 84 88 88 87 89
91 97 91 90 88 92 84 93 89 86 85 80 93 72 85 89 91 94 98 99 100 100 100 99 99 99 100 98 97 95 92 90 90 89 90 88 82 82 83 87 88 91 89 90
88 91 88 87 90 95 87 93 90 89 86 87 87 81 81 91 87 91 96 98 101 102 101 100 100 100 102 100 98 96 92 90 90 88 87 90 86 87 92 93 84 88 87 89
92 99 95 94 97 94 95 91 90 90 88 77 85 85 77 79 88 91 95 98 101 102 102 102 103 102 101 101 99 97 92 89 89 89 87 86 85 87 84 87 91 92 93 90
88 89 95 98 90 95 93 88 77 74 75 75 89 84 67 69 91 94 92 95 99 102 102 101 100 101 100 99 97 97 93 88 89 89 89 87 87 87 87 85 90 89 94 91
81 78 91 96 92 89 90 89 79 65 71 64 86 77 67 85 94 94 95 96 99 101 104 102 102 101 99 99 97 97 93 89 90 89 89 89 87 89 88 85 82 85 84 86
84 82 97 97 98 95 89 83 94 84 80 70 76 85 89 92 91 93 93 94 96 100 101 100 100 100 98 98 97 96 94 92 91 92 90 87 86 85 88 88 89 89 90 90
90 80 93 94 97 96 93 96 84 85 64 66 67 57 72 79 83 89 89 90 91 93 94 95 97 97 98 100 100 98 97 94 93 93 92 90 89 86 89 88 86 87 88 88
95 82 84 91 88 87 88 86 89 87 77 71 59 60 74 72 85 89 90 91 91 93 93 93 94 96 97 97 96 96 95 93 92 92 89 87 87 90 90 89 88 88 88 87
94 88 80 85 94 95 93 89 89 80 75 80 77 76 73 86 92 91 89 91 92 92 92 92 92 92 91 90 90 90 92 92 91 89 88 89 90 89 91 90 91 89 88 89
94 86 57 73 88 91 88 90 90 90 89 77 74 69 93 91 89 89 87 88 88 89 91 92 92 90 89 89 88 88 89 90 92 92 94 92 92 92 92 91 91 90 89 88
85 90 79 56 58 72 82 85 87 87 80 80 82 78 86 87 85 87 86 86 87 87 87 89 88 87 87 86 86 87 88 89 89 91 91 89 89 90 90 89 88 88 87 86
92 82 85 76 71 80 85 84 85 82 84 78 82 83 87 88 88 88 88 87 85 85 87 87 86 85 85 85 86 87 87 87 88 87 86 85 86 86 85 84 85 86 85 86
94 80 83 77 86 86 81 85 85 85 84 83 84 82 94 94 94 90 88 85 84 85 86 86 87 87 86 87 87 87 87 86 86 84 84 85 84 83 82 82 82 82 83 83
88 86 80 74 84 82 75 82 84 84 86 85 78 83 89 87 88 89 89 87 84 85 86 87 87 87 88 89 89 87 88 87 85 83 83 82 82 81 81 81 81 80 80 81
85 82 81 75 78 65 83 87 85 82 85 85 84 84 85 86 89 90 91 85 82 84 86 87 88 89 89 90 90 89 88 85 83 82 82 82 81 80 81 80 79 79 80 79
93 84 76 72 73 78 83 84 81 79 80 85 84 84 85 86 88 86 90 86 83 86 89 88 89 89 88 87 87 85 85 84 82 81 81 81 81 79 79 78 78 79 79 79
90 87 79 75 67 64 79 85 90 87 74 86 85 84 83 84 78 78 87 88 89 89 89 89 89 89 88 86 87 84 83 82 80 81 81 81 79 78 77 77 77 78 78 77
78 77 73 75 71 77 85 87 89 69 73 86 87 86 85 83 82 84 86 86 88 89 88 88 87 85 85 86 86 81 81 80 80 80 79 78 77 76 76 75 76 76 77 76
74 73 74 76 69 67 86 84 76 79 85 86 86 85 84 85 84 84 85 84 85 85 86 87 85 84 85 84 82 79 78 80 79 78 76 75 75 76 78 74 74 75 75 73
73 80 75 75 72 78 84 83 87 88 83 83 83 84 83 82 82 83 82 83 84 83 83 84 83 81 81 81 79 74 72 71 72 73 72 73 74 75 74 71 71 73 74 74
80 82 77 76 79 79 82 85 87 87 84 85 84 83 82 79 81 80 81 81 80 80 79 79 75 74 73 74 75 74 73 72 71 69 69 71 70 68 72 73 76 75 73 73
81 80 77 76 78 79 81 83 83 83 83 82 82 81 79 78 78 77 76 76 76 75 73 71 68 66 66 67 65 69 69 67 64 66 66 64 66 67 68 68 68 70 73 71
85 79 76 75 80 78 78 82 83 80 78 78 77 77 78 76 74 74 73 73 71 69 68 64 63 63 62 61 60 64 67 64 60 58 59 59 60 62 64 67 69 65 58 56
MSLP
1001.11 1000.19 999.05 998.75 999.50 1000.22 1000.04 999.86 999.95 1000.33 1000.82 1000.91 1000.54 1000.53 1001.71 1002.60 1002.98 1003.50 1004.11 1004.84 1005.44 1005.89 1006.62 1007.53 1008.35 1009.10 1009.98 1010.78 1011.54 1012.32 1012.97 1013.59 1014.23 1014.60 1015.13 1015.04 1015.24 1015.30 1015.39 1015.77 1015.65 1015.75 1016.25 1016.19
1000.80 1000.07 999.44 999.96 1000.30 1000.43 1000.03 999.84 999.58 999.92 1000.58 1000.68 1000.25 1000.29 1000.50 1001.88 1002.31 1002.65 1003.54 1003.98 1004.51 1005.01 1006.04 1006.98 1007.91 1008.45 1009.29 1010.36 1011.17 1011.97 1012.68 1013.45 1014.08 1014.22 1014.35 1014.58 1014.83 1015.03 1014.81 1015.05 1015.45 1015.82 1016.17 1016.10
999.88 999.39 999.45 1000.22 1000.15 1000.32 999.81 999.26 999.61 999.60 999.95 1000.29 1000.30 1000.23 1000.49 1001.14 1001.73 1002.24 1002.83 1003.12 1003.50 1004.26 1005.29 1006.42 1007.29 1007.89 1008.74 1009.53 1010.60 1011.43 1012.32 1013.01 1013.78 1013.97 1014.22 1014.36 1014.57 1014.63 1014.70 1014.65 1015.16 1015.42 1015.77 1015.82
1000.05 999.53 1000.01 1000.10 1000.14 999.66 999.02 999.49 1000.00 1000.16 999.90 998.81 999.43 999.84 1000.45 1001.09 1001.35 1001.94 1002.12 1002.49 1002.77 1003.69 1004.67 1005.72 1006.51 1007.33 1007.99 1008.91 1010.00 1010.84 1011.87 1012.65 1013.29 1013.76 1013.68 1013.92 1014.48 1014.66 1014.51 1014.71 1014.80 1014.76 1014.95 1015.08
999.99 999.78 999.99 999.91 999.64 999.34 999.31 999.97 999.96 999.97 999.47 998.57 998.64 999.13 1000.29 1000.79 1001.07 1001.45 1001.79 1002.11 1002.24 1003.05 1004.07 1004.85 1005.83 1006.66 1007.23 1008.38 1009.41 1010.39 1011.46 1012.27 1012.78 1013.37 1013.79 1013.56 1014.08 1013.84 1013.73 1013.60 1014.17 1014.56 1014.91 1014.82
999.73 999.85 999.95 999.55 999.17 999.80 999.83 999.89 999.79 999.76 999.40 998.35 998.19 998.85 1000.61 1001.85 1000.65 1001.14 1001.45 1001.65 1001.81 1002.32 1003.41 1004.32 1005.28 1006.19 1006.92 1007.96 1008.99 1009.91 1011.03 1011.95 1012.51 1012.97 1013.47 1013.64 1013.59 1013.74 1013.79 1013.85 1013.62 1013.61 1013.73 1014.05
999.90 999.84 999.83 999.37 999.23 999.64 999.86 999.30 998.29 998.16 997.91 997.68 997.91 999.15 1001.98 1002.97 1001.20 1000.93 1001.79 1002.02 1002.06 1002.19 1002.99 1004.09 1004.88 1005.71 1006.67 1007.60 1008.71 1009.60 1010.58 1011.52 1012.04 1012.51 1012.94 1013.32 1013.54 1013.72 1013.85 1013.99 1013.56 1013.31 1012.80 1012.93
998.60 998.94 999.21 999.36 999.14 998.52 998.54 998.50 997.35 997.66 998.02 1000.59 999.30 999.64 1002.22 1002.27 1001.52 1001.95 1002.18 1002.24 1002.04 1002.31 1002.47 1003.77 1004.61 1005.48 1006.58 1007.42 1008.51 1009.29 1010.17 1011.04 1011.64 1012.08 1012.47 1012.96 1013.35 1013.51 1013.66 1013.84 1013.97 1013.77 1013.44 1012.84
997.21 997.51 997.98 998.51 998.68 999.09 998.34 998.43 997.84 997.37 998.78 1000.63 1000.70 999.88 1001.47 1001.72 1001.90 1002.33 1002.60 1002.73 1002.58 1002.57 1003.03 1004.01 1005.07 1005.76 1006.82 1007.45 1008.28 1009.08 1009.78 1010.70 1011.21 1011.53 1012.11 1012.78 1013.21 1013.48 1013.24 1013.54 1013.61 1013.57 1013.43 1013.48
997.57 997.42 997.91 998.40 999.10 998.92 998.43 998.15 997.73 997.86 998.90 999.61 1001.92 1002.76 1000.73 1001.76 1002.23 1002.46 1003.05 1003.45 1004.01 1004.40 1004.91 1005.62 1006.13 1006.83 1007.30 1007.46 1008.12 1008.89 1009.53 1010.28 1010.74 1011.22 1011.76 1012.32 1012.69 1013.24 1013.20 1013.47 1013.67 1013.72 1013.62 1013.56
998.03 998.96 998.70 999.04 998.65 998.02 998.60 998.35 997.93 998.35 999.78 999.67 1001.71 1003.16 1002.15 999.16 1000.08 1001.65 1003.02 1004.01 1004.61 1004.97 1005.54 1006.30 1006.89 1007.33 1007.64 1008.14 1008.76 1009.18 1009.74 1010.40 1010.91 1011.27 1012.02 1012.58 1012.83 1012.81 1012.99 1013.22 1013.40 1013.34 1013.42 1013.42
998.92 998.53 999.00 998.50 998.77 998.95 998.43 998.03 998.20 997.53 998.56 999.20 1000.45 1000.74 1000.48 998.52 1001.26 1001.45 1003.49 1004.34 1005.05 1005.72 1006.52 1007.19 1007.75 1008.29 1008.88 1009.52 1009.99 1010.16 1010.33 1010.72 1011.24 1011.93 1012.26 1012.32 1012.51 1012.84 1012.64 1012.65 1012.57 1012.83 1012.99 1012.99
999.21 999.12 1001.32 1000.32 999.57 999.57 999.12 998.71 998.93 998.79 998.66 999.16 999.77 1001.21 1000.57 1000.81 1001.88 1003.49 1004.34 1005.28 1006.09 1006.69 1007.24 1007.77 1008.46 1009.17 1009.76 1010.20 1010.67 1010.91 1011.03 1011.19 1011.34 1011.66 1011.49 1011.82 1011.91 1012.11 1012.08 1012.32 1012.53 1012.78 1012.91 1012.91
1000.56 999.31 999.55 1002.48 1004.03 1002.44 999.78 999.84 999.76 999.72 999.31 998.95 998.79 999.96 1000.53 1001.52 1002.73 1004.14 1005.24 1006.13 1006.86 1007.46 1008.05 1008.49 1009.15 1009.84 1010.43 1010.85 1011.17 1011.37 1011.55 1011.76 1011.98 1011.92 1011.91 1012.12 1012.30 1012.29 1012.39 1012.55 1012.70 1012.66 1012.78 1012.80
1000.57 999.89 1000.16 1002.26 1003.08 1002.25 1000.66 1000.22 1000.09 1000.04 1000.27 1000.32 999.94 999.59 999.79 1000.97 1002.40 1003.84 1005.47 1006.70 1007.59 1008.11 1008.45 1009.06 1009.61 1010.29 1010.79 1011.12 1011.43 1011.68 1011.88 1012.08 1012.23 1012.52 1012.64 1012.61 1012.68 1012.87 1012.99 1012.96 1012.84 1012.72 1012.66 1012.48
1000.04 1000.38 1001.02 1001.48 1000.78 1000.98 1000.99 1000.65 1000.47 1000.42 1000.53 1000.88 1000.93 1000.72 1000.68 1001.10 1002.15 1003.46 1004.98 1006.81 1007.78 1008.29 1008.77 1009.37 1009.75 1010.20 1010.67 1011.07 1011.36 1011.72 1012.00 1012.30 1012.55 1012.84 1012.78 1012.71 1012.76 1012.86 1012.85 1012.82 1012.74 1012.59 1012.43 1012.19
1000.01 999.92 1000.60 1000.79 1000.68 1000.58 1000.68 1000.32 1000.33 1000.35 1000.98 1001.25 1001.34 1001.74 1002.14 1002.36 1003.03 1003.77 1004.79 1006.38 1007.65 1008.32 1009.09 1009.41 1009.80 1010.19 1010.50 1010.91 1011.27 1011.52 1011.68 1012.21 1012.51 1012.71 1012.75 1012.70 1012.68 1012.66 1012.59 1012.45 1012.28 1012.10 1011.99 1011.85
1000.30 1000.95 1001.32 1001.12 1001.18 1000.57 1000.21 1001.33 1001.59 1001.68 1001.74 1002.31 1002.60 1003.03 1003.54 1003.68 1004.01 1004.74 1005.30 1006.46 1007.97 1008.54 1009.03 1009.55 1009.75 1010.02 1010.50 1010.75 1010.98 1011.42 1011.78 1012.14 1012.32 1012.41 1012.45 1012.44 1012.37 1012.20 1012.01 1011.92 1011.75 1011.55 1011.38 1011.24
1000.66 1001.26 1001.45 1001.48 1001.05 1000.84 1000.51 1000.97 1001.70 1001.88 1001.81 1002.97 1003.14 1003.97 1004.36 1004.83 1005.12 1005.46 1006.19 1007.50 1008.19 1008.50 1009.12 1009.61 1009.90 1010.30 1010.76 1011.19 1011.49 1011.70 1011.82 1011.94 1012.06 1012.00 1011.96 1011.94 1011.90 1011.80 1011.68 1011.43 1011.12 1010.92 1010.69 1010.49
1001.35 1001.77 1002.21 1002.04 1001.54 1000.95 1000.89 1001.81 1002.24 1002.85 1002.61 1003.10 1003.91 1004.52 1005.18 1005.72 1005.49 1006.18 1007.08 1007.89 1008.29 1008.97 1009.40 1009.64 1009.90 1010.41 1010.69 1011.02 1011.22 1011.38 1011.44 1011.47 1011.47 1011.51 1011.48 1011.48 1011.58 1011.52 1011.30 1011.03 1010.69 1010.42 1010.23 1009.91
1001.48 1002.21 1002.06 1001.66 1001.68 1001.51 1001.66 1002.61 1003.14 1003.59 1004.20 1004.26 1004.46 1005.04 1005.65 1006.08 1007.11 1008.17 1008.60 1008.84 1009.12 1009.36 1009.68 1009.97 1010.37 1010.59 1010.73 1010.98 1011.11 1011.26 1011.39 1011.34 1011.38 1011.42 1011.45 1011.47 1011.51 1011.38 1011.12 1010.70 1010.29 1009.89 1009.48 1009.19
1002.10 1002.23 1001.79 1001.63 1002.26 1002.42 1003.07 1003.57 1003.69 1004.79 1005.21 1005.39 1005.71 1006.26 1006.75 1007.28 1008.17 1008.74 1009.17 1009.51 1009.80 1009.97 1010.05 1010.19 1010.32 1010.50 1010.82 1011.14 1011.25 1011.21 1011.25 1011.31 1011.36 1011.43 1011.41 1011.34 1011.20 1010.89 1010.32 1010.04 1009.69 1009.25 1008.88 1008.68
1002.72 1002.66 1002.78 1003.32 1003.79 1004.84 1004.74 1004.77 1005.09 1005.24 1006.16 1006.68 1007.14 1007.68 1008.30 1008.67 1009.01 1009.51 1009.94 1010.13 1010.31 1010.53 1010.63 1010.76 1010.89 1010.96 1011.18 1011.38 1011.63 1011.66 1011.83 1011.78 1011.77 1011.72 1011.59 1011.30 1010.80 1010.37 1010.09 1009.79 1009.42 1008.85 1008.15 1007.81
1003.03 1003.76 1003.93 1004.17 1004.53 1005.21 1005.50 1005.92 1006.12 1006.44 1007.23 1007.95 1008.52 1008.96 1009.53 1009.89 1010.24 1010.51 1010.70 1010.90 1011.11 1011.35 1011.50 1011.70 1012.09 1012.24 1012.33 1012.56 1012.35 1012.21 1011.89 1011.89 1011.86 1011.83 1011.59 1011.18 1010.79 1010.41 1009.74 1009.24 1008.41 1007.97 1007.52 1007.24
1003.43 1004.15 1004.17 1004.43 1005.43 1006.15 1006.48 1006.80 1007.47 1008.09 1008.73 1009.18 1009.69 1010.14 1010.57 1011.01 1011.23 1011.53 1011.75 1011.95 1012.15 1012.53 1012.97 1013.51 1013.75 1013.78 1013.72 1013.66 1013.50 1012.93 1012.45 1012.44 1012.28 1012.05 1011.76 1011.47 1010.96 1010.42 1009.72 1008.94 1008.52 1007.73 1007.27 1007.10
1003.23 1003.79 1004.22 1004.15 1004.98 1006.03 1006.54 1007.73 1008.38 1009.03 1009.78 1010.46 1010.73 1011.06 1011.51 1011.94 1012.17 1012.55 1012.78 1013.10 1013.45 1013.80 1014.09 1014.40 1014.59 1014.55 1014.48 1014.48 1014.10 1013.59 1013.11 1012.93 1012.77 1012.44 1012.03 1011.58 1011.09 1010.38 1009.71 1008.93 1007.95 1007.08 1006.49 1006.42
Wind_Speed
16 14 14 9 20 2 3 7 0 5 5 4 7 9 16 16 14 15 13 14 14 14 14 15 13 13 14 12 13 13 12 11 9 8 5 6 4 4 5 6 10 5 7 7
14 14 11 3 4 5 6 6 10 9 3 7 5 7 16 17 13 17 14 15 14 14 15 14 14 14 14 14 13 12 12 11 10 9 7 5 4 3 5 5 4 7 9 10
16 16 10 5 8 10 12 12 4 7 9 11 7 12 10 7 14 13 17 15 15 14 14 14 14 14 13 14 14 13 13 12 11 10 7 6 6 4 3 4 8 10 11 10
16 13 4 7 12 14 10 3 1 4 11 14 18 3 9 14 14 16 16 15 17 15 14 14 15 14 15 13 14 13 13 12 12 11 9 9 4 6 4 7 8 5 10 10
14 16 7 15 15 14 3 3 1 8 12 13 14 10 4 14 15 17 16 15 13 16 15 17 15 14 13 13 13 12 12 12 11 12 11 8 9 7 7 7 6 6 3 7
9 8 14 17 11 3 6 8 10 12 13 14 14 15 15 3 16 14 8 10 14 18 17 14 14 15 12 12 12 12 13 11 12 12 13 13 8 8 6 2 5 7 7 7
10 11 10 10 6 10 10 15 12 13 13 11 3 8 11 17 6 13 9 10 13 13 17 15 15 14 12 14 12 11 13 12 12 12 12 11 11 9 7 5 8 6 5 6
13 17 18 13 15 12 14 16 14 6 5 11 14 8 5 23 11 9 7 7 10 18 17 16 15 13 12 12 12 11 13 11 11 11 11 9 7 8 7 7 6 7 6 2
12 11 21 12 12 14 14 7 19 16 13 10 12 16 16 15 15 13 13 10 10 10 11 11 10 8 7 9 11 11 10 10 10 11 8 6 6 6 8 6 6 6 6 8
2 7 12 10 10 10 18 11 14 10 1 12 9 3 11 9 11 14 13 13 12 9 9 9 10 11 12 11 10 9 9 8 8 7 7 7 6 7 7 6 6 8 9 10
13 13 6 10 13 16 10 11 12 1 7 10 4 8 10 24 20 15 14 14 15 15 12 9 7 7 7 7 6 6 6 7 6 6 4 3 5 5 5 5 7 7 8 9
14 5 11 17 8 3 9 10 13 8 7 13 11 6 5 6 16 17 14 14 13 14 13 12 11 11 11 11 9 8 8 7 8 7 6 6 4 2 6 9 7 4 6 8
6 4 6 21 14 6 10 5 7 12 14 11 9 5 11 10 12 12 14 14 13 14 14 14 14 13 11 12 11 10 9 8 7 4 4 3 2 4 4 4 5 5 7 8
6 17 7 10 9 20 6 7 4 11 10 14 12 9 10 13 12 12 12 12 12 11 10 11 11 11 10 9 9 8 8 6 4 5 6 5 5 6 8 9 8 8 8 9
9 15 9 24 32 28 11 9 10 10 11 14 18 19 4 13 11 14 13 12 11 11 11 10 10 9 8 7 6 4 4 3 5 4 6 7 7 7 9 9 9 10 10 10
9 9 4 14 8 10 12 12 14 16 12 14 15 15 15 5 5 13 15 12 10 10 9 8 8 8 7 6 3 3 1 2 3 5 7 7 7 8 9 10 10 10 11 11
10 9 4 12 13 7 12 13 10 5 9 10 10 9 10 3 1 7 11 13 10 8 7 7 7 6 3 1 1 5 1 4 5 7 8 8 8 9 9 10 11 11 11 11
6 7 10 12 13 17 2 6 4 6 8 4 5 3 3 4 1 1 5 9 5 7 6 4 4 4 4 5 6 7 7 7 8 9 9 9 10 10 10 10 11 12 11 11
9 7 11 11 12 14 11 15 5 5 6 5 3 4 5 4 2 5 6 6 7 5 4 5 5 5 5 6 8 9 10 10 11 11 10 10 11 11 12 13 12 12 12 11
9 11 9 13 16 15 4 9 8 4 11 11 3 5 6 5 6 9 7 3 2 4 5 6 7 9 10 10 11 11 12 12 13 12 12 11 12 13 14 14 14 13 12 13
7 6 11 11 11 13 10 9 6 8 6 5 3 5 4 2 9 7 6 5 7 8 8 8 9 11 12 12 13 13 13 15 14 14 14 13 13 14 15 15 14 15 14 15
7 10 10 8 10 10 8 5 6 8 3 3 5 7 2 6 4 3 5 6 8 10 11 12 12 12 12 13 14 15 14 13 13 13 14 14 14 14 14 15 14 14 14 14
7 7 8 8 7 4 4 6 6 5 7 4 4 7 4 3 4 7 8 10 11 13 12 13 14 15 14 14 14 15 12 10 10 13 14 16 16 15 14 14 14 14 14 13
6 2 6 4 8 5 6 6 6 7 9 6 6 5 5 7 8 11 11 12 13 13 13 13 15 16 16 16 16 16 13 13 14 15 14 14 14 14 14 13 12 12 10 12
7 5 6 6 7 5 5 7 8 8 6 6 5 6 7 8 10 11 11 11 11 12 13 12 13 14 15 15 15 18 15 11 10 12 12 11 10 12 14 12 11 11 11 11
8 8 7 4 12 5 12 8 5 6 5 5 5 6 7 7 8 10 10 10 10 11 12 12 12 13 13 14 13 15 16 13 10 9 9 8 9 9 10 12 14 15 14 15
Wind_Direction
200 238 234 226 110 244 356 296 20 135 103 254 254 154 158 166 190 158 175 163 171 179 171 160 188 173 181 175 181 178 190 175 186 198 180 228 212 231 185 182 215 193 234 215
237 238 273 73 23 271 268 231 220 144 160 263 166 249 144 163 192 167 189 169 168 179 156 165 179 186 187 182 190 186 192 188 199 196 218 183 206 197 204 226 228 229 223 225
250 216 206 198 214 244 228 254 31 320 183 219 238 231 156 185 173 188 178 183 171 175 162 170 180 188 187 179 189 186 191 189 201 224 214 211 255 245 227 206 212 205 218 233
231 250 224 207 241 240 283 67 332 251 257 233 205 142 204 164 173 181 188 195 176 168 179 173 181 191 186 184 185 190 189 196 197 207 224 225 207 232 198 222 216 254 198 225
218 236 191 233 228 234 77 336 224 275 273 269 204 208 232 158 162 176 190 181 199 175 182 171 186 183 187 178 180 185 187 194 214 200 234 222 219 212 233 216 137 212 232 231
280 209 212 214 211 239 4 258 221 229 245 257 234 231 188 301 151 158 163 181 193 178 177 184 177 167 181 167 181 183 181 195 200 208 210 237 255 249 287 209 255 229 198 211
211 192 226 272 196 186 232 250 243 220 213 237 302 227 135 263 163 149 163 189 203 200 171 182 174 170 177 166 181 181 180 193 201 211 218 220 241 254 275 291 264 267 256 198
206 181 209 183 248 251 210 237 261 263 282 330 190 189 126 212 128 132 143 148 184 189 172 177 176 175 175 167 180 191 178 190 196 207 217 228 227 241 233 219 252 290 319 260
183 238 179 207 195 238 256 257 276 301 151 215 262 111 132 137 135 138 127 129 140 162 149 160 160 147 158 188 180 198 187 191 203 200 209 203 214 245 277 278 290 275 275 280
257 219 171 173 232 243 267 322 223 243 46 296 48 212 117 111 138 135 137 128 123 120 127 150 168 169 185 186 181 190 178 191 195 207 182 208 209 208 245 245 262 292 293 295
266 119 221 172 209 180 193 234 248 167 314 271 66 301 159 161 185 149 133 137 142 142 131 121 120 128 123 91 113 137 174 142 170 147 108 127 202 228 221 239 258 273 289 289
247 47 216 200 122 283 299 330 286 292 214 330 308 196 15 304 130 123 130 132 122 120 122 120 111 104 99 90 80 89 101 121 123 137 167 165 158 241 245 217 243 236 287 289
257 243 58 297 172 179 249 193 279 304 306 296 273 111 170 95 96 126 130 121 126 128 130 125 119 113 105 99 98 94 95 97 120 177 181 84 356 246 267 257 256 315 307 307
310 276 242 124 299 287 230 210 263 300 294 307 289 116 154 141 145 144 135 141 138 130 132 120 118 107 103 100 98 100 98 94 59 11 354 354 305 307 321 323 305 300 300 293
255 276 324 156 180 223 289 305 298 284 299 293 304 307 73 153 168 157 148 148 152 159 152 139 136 129 126 121 117 110 94 53 2 334 310 300 305 309 302 292 288 282 282 285
239 258 262 294 264 221 283 290 291 281 267 278 281 286 293 19 142 168 160 160 180 175 143 161 145 150 147 149 153 95 337 300 295 277 276 289 277 272 277 280 285 287 281 278
270 283 215 269 289 285 273 274 306 329 314 300 279 25 4 345 275 198 171 164 192 164 193 171 166 174 151 194 226 246 246 300 290 291 295 294 290 288 288 288 286 275 275 278
215 274 288 283 289 273 327 65 348 308 299 300 301 21 17 40 103 121 215 129 171 197 177 200 228 194 221 258 326 335 298 298 286 287 290 291 290 291 289 286 285 280 270 267
289 278 282 280 271 277 254 184 226 245 221 163 225 148 109 100 154 152 114 144 170 193 186 218 249 273 293 290 291 286 283 288 287 286 289 290 294 296 296 291 283 279 272 268
277 303 268 274 279 273 342 72 92 65 259 135 177 135 138 157 236 67 121 156 181 180 248 283 319 320 305 308 305 299 295 297 299 299 297 305 308 298 294 290 287 280 274 270
250 228 268 251 248 259 99 123 133 231 67 124 152 145 166 232 67 83 41 12 342 334 324 315 299 292 299 307 304 302 298 296 304 308 305 301 296 294 290 283 276 272 270 268
260 263 261 240 262 252 99 154 254 75 135 88 58 63 33 28 51 5 348 325 317 310 310 307 301 300 309 310 304 298 293 301 310 303 298 299 295 290 292 296 288 283 280 274
247 275 322 343 34 76 25 40 81 82 100 92 102 84 40 331 340 347 328 320 319 316 317 319 310 306 307 316 337 330 328 323 308 298 292 286 286 291 288 284 288 286 274 267
168 216 266 284 122 130 116 111 96 96 94 86 57 46 15 349 337 329 329 324 322 319 321 332 338 323 325 317 311 305 302 316 315 300 297 296 295 286 292 289 280 270 276 269
35 149 233 239 128 133 152 128 107 99 75 58 54 25 7 347 332 333 323 322 328 338 336 336 317 311 309 318 324 323 321 323 313 307 301 291 289 288 296 288 284 282 281 282
218 240 238 339 137 238 141 123 133 113 89 55 3 358 2 344 339 344 331 335 329 337 327 329 327 320 314 318 315 316 323 332 327 314 309 312 302 294 289 289 291 268 246 260